owner,sensor,date,latitude,longitude,vertical_datum,wind_speed,wind_to_direction,wind_speed_of_gust,qcFlag 
NDBC,ioos:station:NOAA.NDBC:SANF1:1,2017-06-01T00:50:00Z,24.4560,-81.8770,45.4,8.8,140.0,10.3,'1111122,1111122,1111122' 
NDBC,ioos:station:NOAA.NDBC:SANF1:1,2017-06-01T02:50:00Z,24.4560,-81.8770,45.4,6.7,130.0,7.7,'1111122,1111122,1111122' 
NDBC,ioos:station:NOAA.NDBC:SANF1:1,2017-06-01T03:50:00Z,24.4560,-81.8770,45.4,6.2,120.0,7.2,'1111122,1111122,1111122' 
NDBC,ioos:station:NOAA.NDBC:SANF1:1,2017-06-01T04:50:00Z,24.4560,-81.8770,45.4,6.7,130.0,7.7,'1111122,1111122,1111122' 
NDBC,ioos:station:NOAA.NDBC:SANF1:1,2017-06-01T05:50:00Z,24.4560,-81.8770,45.4,7.2,140.0,8.2,'1111122,1111122,1111122' 
NDBC,ioos:station:NOAA.NDBC:SANF1:1,2017-06-01T06:50:00Z,24.4560,-81.8770,45.4,5.7,140.0,6.7,'1111122,1111122,1111122' 
NDBC,ioos:station:NOAA.NDBC:SANF1:1,2017-06-01T07:50:00Z,24.4560,-81.8770,45.4,6.2,120.0,6.2,'1111122,1111122,1111122' 
NDBC,ioos:station:NOAA.NDBC:SANF1:1,2017-06-01T08:50:00Z,24.4560,-81.8770,45.4,5.7,130.0,6.2,'1111122,1111122,1111122' 
NDBC,ioos:station:NOAA.NDBC:SANF1:1,2017-06-01T10:50:00Z,24.4560,-81.8770,45.4,6.2,130.0,6.7,'1111122,1111122,1111122' 
NDBC,ioos:station:NOAA.NDBC:SANF1:1,2017-06-01T11:50:00Z,24.4560,-81.8770,45.4,7.2,140.0,8.2,'1111122,1111122,1111122' 
NDBC,ioos:station:NOAA.NDBC:SANF1:1,2017-06-01T12:50:00Z,24.4560,-81.8770,45.4,6.7,140.0,7.2,'1111122,1111122,1111122' 
NDBC,ioos:station:NOAA.NDBC:SANF1:1,2017-06-01T13:50:00Z,24.4560,-81.8770,45.4,7.7,150.0,8.8,'1111122,1111122,1111122' 
NDBC,ioos:station:NOAA.NDBC:SANF1:1,2017-06-01T14:50:00Z,24.4560,-81.8770,45.4,7.7,150.0,8.8,'1111122,1111122,1111122' 
NDBC,ioos:station:NOAA.NDBC:SANF1:1,2017-06-01T16:50:00Z,24.4560,-81.8770,45.4,6.7,160.0,7.2,'1111122,1111122,1111122' 
NDBC,ioos:station:NOAA.NDBC:SANF1:1,2017-06-01T17:50:00Z,24.4560,-81.8770,45.4,4.1,160.0,5.1,'1111122,1111122,1111122' 
NDBC,ioos:station:NOAA.NDBC:SANF1:1,2017-06-01T18:50:00Z,24.4560,-81.8770,45.4,5.7,150.0,6.2,'1111122,1111122,1111122' 
NDBC,ioos:station:NOAA.NDBC:SANF1:1,2017-06-01T19:50:00Z,24.4560,-81.8770,45.4,5.1,150.0,5.7,'1111122,1111122,1111122' 
NDBC,ioos:station:NOAA.NDBC:SANF1:1,2017-06-01T21:50:00Z,24.4560,-81.8770,45.4,4.6,130.0,5.1,'1111122,1111122,1111122' 
NDBC,ioos:station:NOAA.NDBC:SANF1:1,2017-06-01T22:50:00Z,24.4560,-81.8770,45.4,5.1,110.0,5.7,'1111122,1111122,1111122' 
NDBC,ioos:station:NOAA.NDBC:SANF1:1,2017-06-01T23:50:00Z,24.4560,-81.8770,45.4,6.2,110.0,6.7,'1111122,1111122,1111122' 
NDBC,ioos:station:NOAA.NDBC:SANF1:1,2017-06-02T00:50:00Z,24.4560,-81.8770,45.4,6.7,110.0,7.2,'1111122,1111122,1111122' 
NDBC,ioos:station:NOAA.NDBC:SANF1:1,2017-06-02T01:50:00Z,24.4560,-81.8770,45.4,6.7,120.0,7.7,'1111122,1111122,1111122' 
NDBC,ioos:station:NOAA.NDBC:SANF1:1,2017-06-02T02:50:00Z,24.4560,-81.8770,45.4,6.7,120.0,7.7,'1111122,1111122,1111122' 
NDBC,ioos:station:NOAA.NDBC:SANF1:1,2017-06-02T03:50:00Z,24.4560,-81.8770,45.4,7.7,120.0,8.8,'1111122,1111122,1111122' 
NDBC,ioos:station:NOAA.NDBC:SANF1:1,2017-06-02T04:50:00Z,24.4560,-81.8770,45.4,8.2,120.0,9.3,'1111122,1111122,1111122' 
NDBC,ioos:station:NOAA.NDBC:SANF1:1,2017-06-02T05:50:00Z,24.4560,-81.8770,45.4,7.2,120.0,8.2,'1111122,1111122,1111122' 
NDBC,ioos:station:NOAA.NDBC:SANF1:1,2017-06-02T06:50:00Z,24.4560,-81.8770,45.4,8.2,130.0,9.3,'1111122,1111122,1111122' 
NDBC,ioos:station:NOAA.NDBC:SANF1:1,2017-06-02T07:50:00Z,24.4560,-81.8770,45.4,8.2,140.0,8.8,'1111122,1111122,1111122' 
NDBC,ioos:station:NOAA.NDBC:SANF1:1,2017-06-02T08:50:00Z,24.4560,-81.8770,45.4,8.2,140.0,8.8,'1111122,1111122,1111122' 
NDBC,ioos:station:NOAA.NDBC:SANF1:1,2017-06-02T09:50:00Z,24.4560,-81.8770,45.4,7.7,150.0,9.3,'1111122,1111122,1111122' 
NDBC,ioos:station:NOAA.NDBC:SANF1:1,2017-06-02T10:50:00Z,24.4560,-81.8770,45.4,8.8,160.0,9.8,'1111122,1111122,1111122' 
NDBC,ioos:station:NOAA.NDBC:SANF1:1,2017-06-02T11:50:00Z,24.4560,-81.8770,45.4,7.7,150.0,8.8,'1111122,1111122,1111122' 
NDBC,ioos:station:NOAA.NDBC:SANF1:1,2017-06-02T12:50:00Z,24.4560,-81.8770,45.4,9.8,180.0,10.8,'1111122,1111122,1111122' 
NDBC,ioos:station:NOAA.NDBC:SANF1:1,2017-06-02T13:50:00Z,24.4560,-81.8770,45.4,6.2,180.0,8.2,'1111122,1111122,1111122' 
NDBC,ioos:station:NOAA.NDBC:SANF1:1,2017-06-02T15:50:00Z,24.4560,-81.8770,45.4,7.2,160.0,8.2,'1111122,1111122,1111122' 
NDBC,ioos:station:NOAA.NDBC:SANF1:1,2017-06-02T17:50:00Z,24.4560,-81.8770,45.4,6.2,160.0,7.7,'1111122,1111122,1111122' 
NDBC,ioos:station:NOAA.NDBC:SANF1:1,2017-06-02T18:50:00Z,24.4560,-81.8770,45.4,5.7,160.0,6.2,'1111122,1111122,1111122' 
NDBC,ioos:station:NOAA.NDBC:SANF1:1,2017-06-02T19:50:00Z,24.4560,-81.8770,45.4,5.1,130.0,5.7,'1111122,1111122,1111122' 
NDBC,ioos:station:NOAA.NDBC:SANF1:1,2017-06-02T20:50:00Z,24.4560,-81.8770,45.4,4.6,120.0,5.7,'1111122,1111122,1111122' 
NDBC,ioos:station:NOAA.NDBC:SANF1:1,2017-06-02T22:50:00Z,24.4560,-81.8770,45.4,5.7,120.0,6.2,'1111122,1111122,1111122' 
NDBC,ioos:station:NOAA.NDBC:SANF1:1,2017-06-02T23:50:00Z,24.4560,-81.8770,45.4,5.1,110.0,6.2,'1111122,1111122,1111122' 
NDBC,ioos:station:NOAA.NDBC:SANF1:1,2017-06-03T01:50:00Z,24.4560,-81.8770,45.4,6.7,100.0,8.2,'1111122,1111122,1111122' 
NDBC,ioos:station:NOAA.NDBC:SANF1:1,2017-06-03T02:50:00Z,24.4560,-81.8770,45.4,7.7,100.0,8.2,'1111122,1111122,1111122' 
NDBC,ioos:station:NOAA.NDBC:SANF1:1,2017-06-03T04:50:00Z,24.4560,-81.8770,45.4,8.2,110.0,9.3,'1111122,1111122,1111122' 
NDBC,ioos:station:NOAA.NDBC:SANF1:1,2017-06-03T05:50:00Z,24.4560,-81.8770,45.4,3.1,120.0,3.1,'1111122,1111122,1111122' 
NDBC,ioos:station:NOAA.NDBC:SANF1:1,2017-06-03T10:50:00Z,24.4560,-81.8770,45.4,6.7,150.0,8.2,'1111122,1111122,1111122' 
NDBC,ioos:station:NOAA.NDBC:SANF1:1,2017-06-03T11:50:00Z,24.4560,-81.8770,45.4,6.7,160.0,7.7,'1111122,1111122,1111122' 
NDBC,ioos:station:NOAA.NDBC:SANF1:1,2017-06-03T13:50:00Z,24.4560,-81.8770,45.4,6.7,170.0,7.7,'1111122,1111122,1111122' 
NDBC,ioos:station:NOAA.NDBC:SANF1:1,2017-06-03T14:50:00Z,24.4560,-81.8770,45.4,6.2,160.0,6.7,'1111122,1111122,1111122' 
NDBC,ioos:station:NOAA.NDBC:SANF1:1,2017-06-03T16:50:00Z,24.4560,-81.8770,45.4,4.1,180.0,4.6,'1111122,1111122,1111122' 
NDBC,ioos:station:NOAA.NDBC:SANF1:1,2017-06-03T17:50:00Z,24.4560,-81.8770,45.4,3.6,160.0,4.1,'1111122,1111122,1111122' 
NDBC,ioos:station:NOAA.NDBC:SANF1:1,2017-06-03T18:50:00Z,24.4560,-81.8770,45.4,4.6,140.0,5.7,'1111122,1111122,1111122' 
NDBC,ioos:station:NOAA.NDBC:SANF1:1,2017-06-03T19:50:00Z,24.4560,-81.8770,45.4,3.6,130.0,4.1,'1111122,1111122,1111122' 
NDBC,ioos:station:NOAA.NDBC:SANF1:1,2017-06-03T21:50:00Z,24.4560,-81.8770,45.4,3.1,110.0,4.1,'1111122,1111122,1111122' 
NDBC,ioos:station:NOAA.NDBC:SANF1:1,2017-06-03T22:50:00Z,24.4560,-81.8770,45.4,4.1,110.0,5.1,'1111122,1111122,1111122' 
NDBC,ioos:station:NOAA.NDBC:SANF1:1,2017-06-03T23:50:00Z,24.4560,-81.8770,45.4,5.1,90.0,6.2,'1111122,1111122,1111122' 
NDBC,ioos:station:NOAA.NDBC:SANF1:1,2017-06-04T00:50:00Z,24.4560,-81.8770,45.4,6.7,100.0,7.7,'1111122,1111122,1111122' 
NDBC,ioos:station:NOAA.NDBC:SANF1:1,2017-06-04T02:50:00Z,24.4560,-81.8770,45.4,6.7,120.0,7.7,'1111122,1111122,1111122' 
NDBC,ioos:station:NOAA.NDBC:SANF1:1,2017-06-04T03:50:00Z,24.4560,-81.8770,45.4,6.7,120.0,7.7,'1111122,1111122,1111122' 
NDBC,ioos:station:NOAA.NDBC:SANF1:1,2017-06-04T05:50:00Z,24.4560,-81.8770,45.4,6.7,110.0,7.2,'1111122,1111122,1111122' 
NDBC,ioos:station:NOAA.NDBC:SANF1:1,2017-06-04T06:50:00Z,24.4560,-81.8770,45.4,6.2,130.0,6.7,'1111122,1111122,1111122' 
NDBC,ioos:station:NOAA.NDBC:SANF1:1,2017-06-04T07:50:00Z,24.4560,-81.8770,45.4,6.2,120.0,7.2,'1111122,1111122,1111122' 
NDBC,ioos:station:NOAA.NDBC:SANF1:1,2017-06-04T08:50:00Z,24.4560,-81.8770,45.4,4.1,140.0,4.6,'1111122,1111122,1111122' 
NDBC,ioos:station:NOAA.NDBC:SANF1:1,2017-06-04T09:50:00Z,24.4560,-81.8770,45.4,4.6,150.0,5.7,'1111122,1111122,1111122' 
NDBC,ioos:station:NOAA.NDBC:SANF1:1,2017-06-04T11:50:00Z,24.4560,-81.8770,45.4,4.6,150.0,5.1,'1111122,1111122,1111122' 
NDBC,ioos:station:NOAA.NDBC:SANF1:1,2017-06-04T12:50:00Z,24.4560,-81.8770,45.4,5.7,150.0,6.2,'1111122,1111122,1111122' 
NDBC,ioos:station:NOAA.NDBC:SANF1:1,2017-06-04T13:50:00Z,24.4560,-81.8770,45.4,5.1,150.0,5.7,'1111122,1111122,1111122' 
NDBC,ioos:station:NOAA.NDBC:SANF1:1,2017-06-04T15:50:00Z,24.4560,-81.8770,45.4,5.7,160.0,6.2,'1111122,1111122,1111122' 
NDBC,ioos:station:NOAA.NDBC:SANF1:1,2017-06-04T16:50:00Z,24.4560,-81.8770,45.4,5.1,140.0,6.2,'1111122,1111122,1111122' 
NDBC,ioos:station:NOAA.NDBC:SANF1:1,2017-06-04T17:50:00Z,24.4560,-81.8770,45.4,5.1,150.0,5.7,'1111122,1111122,1111122' 
NDBC,ioos:station:NOAA.NDBC:SANF1:1,2017-06-04T19:50:00Z,24.4560,-81.8770,45.4,5.1,130.0,6.2,'1111122,1111122,1111122' 
NDBC,ioos:station:NOAA.NDBC:SANF1:1,2017-06-04T20:50:00Z,24.4560,-81.8770,45.4,5.1,120.0,6.2,'1111122,1111122,1111122' 
NDBC,ioos:station:NOAA.NDBC:SANF1:1,2017-06-04T22:50:00Z,24.4560,-81.8770,45.4,6.7,120.0,8.2,'1111122,1111122,1111122' 
NDBC,ioos:station:NOAA.NDBC:SANF1:1,2017-06-04T23:50:00Z,24.4560,-81.8770,45.4,6.2,120.0,6.7,'1111122,1111122,1111122' 
NDBC,ioos:station:NOAA.NDBC:SANF1:1,2017-06-05T01:50:00Z,24.4560,-81.8770,45.4,6.7,120.0,7.7,'1111122,1111122,1111122' 
NDBC,ioos:station:NOAA.NDBC:SANF1:1,2017-06-05T02:50:00Z,24.4560,-81.8770,45.4,7.2,140.0,8.2,'1111122,1111122,1111122' 
NDBC,ioos:station:NOAA.NDBC:SANF1:1,2017-06-05T03:50:00Z,24.4560,-81.8770,45.4,7.2,150.0,8.2,'1111122,1111122,1111122' 
NDBC,ioos:station:NOAA.NDBC:SANF1:1,2017-06-05T04:50:00Z,24.4560,-81.8770,45.4,7.7,150.0,8.8,'1111122,1111122,1111122' 
NDBC,ioos:station:NOAA.NDBC:SANF1:1,2017-06-05T05:50:00Z,24.4560,-81.8770,45.4,7.2,160.0,8.2,'1111122,1111122,1111122' 
NDBC,ioos:station:NOAA.NDBC:SANF1:1,2017-06-05T06:50:00Z,24.4560,-81.8770,45.4,8.2,160.0,8.8,'1111122,1111122,1111122' 
NDBC,ioos:station:NOAA.NDBC:SANF1:1,2017-06-05T07:50:00Z,24.4560,-81.8770,45.4,7.7,160.0,8.8,'1111122,1111122,1111122' 
NDBC,ioos:station:NOAA.NDBC:SANF1:1,2017-06-05T09:50:00Z,24.4560,-81.8770,45.4,7.2,170.0,8.2,'1111122,1111122,1111122' 
NDBC,ioos:station:NOAA.NDBC:SANF1:1,2017-06-05T10:50:00Z,24.4560,-81.8770,45.4,7.2,170.0,8.8,'1111122,1111122,1111122' 
NDBC,ioos:station:NOAA.NDBC:SANF1:1,2017-06-05T11:50:00Z,24.4560,-81.8770,45.4,7.2,170.0,8.2,'1111122,1111122,1111122' 
NDBC,ioos:station:NOAA.NDBC:SANF1:1,2017-06-05T12:50:00Z,24.4560,-81.8770,45.4,7.2,170.0,8.2,'1111122,1111122,1111122' 
NDBC,ioos:station:NOAA.NDBC:SANF1:1,2017-06-05T13:50:00Z,24.4560,-81.8770,45.4,7.2,170.0,7.7,'1111122,1111122,1111122' 
NDBC,ioos:station:NOAA.NDBC:SANF1:1,2017-06-05T14:50:00Z,24.4560,-81.8770,45.4,6.2,160.0,7.2,'1111122,1111122,1111122' 
NDBC,ioos:station:NOAA.NDBC:SANF1:1,2017-06-05T16:50:00Z,24.4560,-81.8770,45.4,2.6,170.0,5.1,'1111122,1111122,1111122' 
NDBC,ioos:station:NOAA.NDBC:SANF1:1,2017-06-05T17:50:00Z,24.4560,-81.8770,45.4,4.6,150.0,5.7,'1111122,1111122,1111122' 
NDBC,ioos:station:NOAA.NDBC:SANF1:1,2017-06-05T18:50:00Z,24.4560,-81.8770,45.4,5.1,170.0,5.7,'1111122,1111122,1111122' 
NDBC,ioos:station:NOAA.NDBC:SANF1:1,2017-06-05T19:50:00Z,24.4560,-81.8770,45.4,4.1,180.0,4.6,'1111122,1111122,1111122' 
NDBC,ioos:station:NOAA.NDBC:SANF1:1,2017-06-05T20:50:00Z,24.4560,-81.8770,45.4,3.6,130.0,4.1,'1111122,1111122,1111122' 
NDBC,ioos:station:NOAA.NDBC:SANF1:1,2017-06-05T22:50:00Z,24.4560,-81.8770,45.4,3.1,160.0,3.6,'1111122,1111122,1111122' 
NDBC,ioos:station:NOAA.NDBC:SANF1:1,2017-06-06T00:50:00Z,24.4560,-81.8770,45.4,6.7,170.0,7.7,'1111122,1111122,1111122' 
NDBC,ioos:station:NOAA.NDBC:SANF1:1,2017-06-06T01:50:00Z,24.4560,-81.8770,45.4,6.2,160.0,6.7,'1111122,1111122,1111122' 
NDBC,ioos:station:NOAA.NDBC:SANF1:1,2017-06-06T02:50:00Z,24.4560,-81.8770,45.4,6.2,160.0,7.2,'1111122,1111122,1111122' 
NDBC,ioos:station:NOAA.NDBC:SANF1:1,2017-06-06T03:50:00Z,24.4560,-81.8770,45.4,6.2,160.0,8.2,'1111122,1111122,1111122' 
NDBC,ioos:station:NOAA.NDBC:SANF1:1,2017-06-06T05:50:00Z,24.4560,-81.8770,45.4,8.8,180.0,9.8,'1111122,1111122,1111122' 
NDBC,ioos:station:NOAA.NDBC:SANF1:1,2017-06-06T06:50:00Z,24.4560,-81.8770,45.4,10.3,180.0,11.8,'1111122,1111122,1111122' 
NDBC,ioos:station:NOAA.NDBC:SANF1:1,2017-06-06T08:50:00Z,24.4560,-81.8770,45.4,8.8,190.0,10.3,'1111122,1111122,1111122' 
NDBC,ioos:station:NOAA.NDBC:SANF1:1,2017-06-06T09:50:00Z,24.4560,-81.8770,45.4,9.8,190.0,10.8,'1111122,1111122,1111122' 
NDBC,ioos:station:NOAA.NDBC:SANF1:1,2017-06-06T10:50:00Z,24.4560,-81.8770,45.4,11.3,190.0,12.4,'1111122,1111122,1111122' 
NDBC,ioos:station:NOAA.NDBC:SANF1:1,2017-06-06T11:50:00Z,24.4560,-81.8770,45.4,9.8,180.0,11.3,'1111122,1111122,1111122' 
NDBC,ioos:station:NOAA.NDBC:SANF1:1,2017-06-06T12:50:00Z,24.4560,-81.8770,45.4,9.8,190.0,11.3,'1111122,1111122,1111122' 
NDBC,ioos:station:NOAA.NDBC:SANF1:1,2017-06-06T13:50:00Z,24.4560,-81.8770,45.4,9.3,190.0,10.3,'1111122,1111122,1111122' 
NDBC,ioos:station:NOAA.NDBC:SANF1:1,2017-06-06T14:50:00Z,24.4560,-81.8770,45.4,8.8,200.0,10.3,'1111122,1111122,1111122' 
NDBC,ioos:station:NOAA.NDBC:SANF1:1,2017-06-06T15:50:00Z,24.4560,-81.8770,45.4,8.2,200.0,9.8,'1111122,1111122,1111122' 
NDBC,ioos:station:NOAA.NDBC:SANF1:1,2017-06-06T16:50:00Z,24.4560,-81.8770,45.4,8.8,190.0,9.8,'1111122,1111122,1111122' 
NDBC,ioos:station:NOAA.NDBC:SANF1:1,2017-06-06T17:50:00Z,24.4560,-81.8770,45.4,7.2,200.0,9.3,'1111122,1111122,1111122' 
NDBC,ioos:station:NOAA.NDBC:SANF1:1,2017-06-06T18:50:00Z,24.4560,-81.8770,45.4,5.1,220.0,6.2,'1111122,1111122,1111122' 
NDBC,ioos:station:NOAA.NDBC:SANF1:1,2017-06-06T19:50:00Z,24.4560,-81.8770,45.4,4.1,230.0,4.6,'1111122,1111122,1111122' 
NDBC,ioos:station:NOAA.NDBC:SANF1:1,2017-06-06T20:50:00Z,24.4560,-81.8770,45.4,5.7,230.0,6.2,'1111122,1111122,1111122' 
NDBC,ioos:station:NOAA.NDBC:SANF1:1,2017-06-06T21:50:00Z,24.4560,-81.8770,45.4,5.1,210.0,6.2,'1111122,1111122,1111122' 
NDBC,ioos:station:NOAA.NDBC:SANF1:1,2017-06-06T23:50:00Z,24.4560,-81.8770,45.4,10.3,210.0,13.4,'1111122,1111122,1111122' 
NDBC,ioos:station:NOAA.NDBC:SANF1:1,2017-06-07T00:50:00Z,24.4560,-81.8770,45.4,10.3,210.0,11.3,'1111122,1111122,1111122' 
NDBC,ioos:station:NOAA.NDBC:SANF1:1,2017-06-07T01:50:00Z,24.4560,-81.8770,45.4,9.8,210.0,11.8,'1111122,1111122,1111122' 
NDBC,ioos:station:NOAA.NDBC:SANF1:1,2017-06-07T02:50:00Z,24.4560,-81.8770,45.4,9.3,210.0,10.8,'1111122,1111122,1111122' 
NDBC,ioos:station:NOAA.NDBC:SANF1:1,2017-06-07T04:50:00Z,24.4560,-81.8770,45.4,8.2,200.0,9.8,'1111122,1111122,1111122' 
NDBC,ioos:station:NOAA.NDBC:SANF1:1,2017-06-07T05:50:00Z,24.4560,-81.8770,45.4,8.2,200.0,10.3,'1111122,1111122,1111122' 
NDBC,ioos:station:NOAA.NDBC:SANF1:1,2017-06-07T06:50:00Z,24.4560,-81.8770,45.4,7.2,200.0,8.8,'1111122,1111122,1111122' 
NDBC,ioos:station:NOAA.NDBC:SANF1:1,2017-06-07T07:50:00Z,24.4560,-81.8770,45.4,9.3,300.0,18.0,'1111122,1111122,1111122' 
NDBC,ioos:station:NOAA.NDBC:SANF1:1,2017-06-07T08:50:00Z,24.4560,-81.8770,45.4,14.4,300.0,17.5,'1111122,1111122,1111122' 
NDBC,ioos:station:NOAA.NDBC:SANF1:1,2017-06-07T09:50:00Z,24.4560,-81.8770,45.4,6.2,330.0,7.2,'1111122,1111122,1111122' 
NDBC,ioos:station:NOAA.NDBC:SANF1:1,2017-06-07T10:50:00Z,24.4560,-81.8770,45.4,1.0,70.0,1.5,'1111122,1111122,1111122' 
NDBC,ioos:station:NOAA.NDBC:SANF1:1,2017-06-07T12:50:00Z,24.4560,-81.8770,45.4,0.5,10.0,4.6,'1111122,1111122,1111122' 
NDBC,ioos:station:NOAA.NDBC:SANF1:1,2017-06-07T14:50:00Z,24.4560,-81.8770,45.4,2.6,100.0,3.1,'1111122,1111122,1111122' 
NDBC,ioos:station:NOAA.NDBC:SANF1:1,2017-06-07T15:50:00Z,24.4560,-81.8770,45.4,8.8,120.0,9.8,'1111122,1111122,1111122' 
NDBC,ioos:station:NOAA.NDBC:SANF1:1,2017-06-07T16:50:00Z,24.4560,-81.8770,45.4,9.8,120.0,10.8,'1111122,1111122,1111122' 
NDBC,ioos:station:NOAA.NDBC:SANF1:1,2017-06-07T17:50:00Z,24.4560,-81.8770,45.4,8.8,140.0,9.8,'1111122,1111122,1111122' 
NDBC,ioos:station:NOAA.NDBC:SANF1:1,2017-06-07T18:50:00Z,24.4560,-81.8770,45.4,7.2,160.0,8.2,'1111122,1111122,1111122' 
NDBC,ioos:station:NOAA.NDBC:SANF1:1,2017-06-07T19:50:00Z,24.4560,-81.8770,45.4,5.1,180.0,6.2,'1111122,1111122,1111122' 
NDBC,ioos:station:NOAA.NDBC:SANF1:1,2017-06-07T20:50:00Z,24.4560,-81.8770,45.4,3.1,160.0,4.1,'1111122,1111122,1111122' 
NDBC,ioos:station:NOAA.NDBC:SANF1:1,2017-06-07T22:50:00Z,24.4560,-81.8770,45.4,13.9,310.0,18.0,'1111122,1111122,1111122' 
NDBC,ioos:station:NOAA.NDBC:SANF1:1,2017-06-07T23:50:00Z,24.4560,-81.8770,45.4,13.9,310.0,16.5,'1111122,1111122,1111122' 
NDBC,ioos:station:NOAA.NDBC:SANF1:1,2017-06-08T00:50:00Z,24.4560,-81.8770,45.4,7.7,270.0,9.8,'1111122,1111122,1111122' 
NDBC,ioos:station:NOAA.NDBC:SANF1:1,2017-06-08T01:50:00Z,24.4560,-81.8770,45.4,9.8,280.0,11.3,'1111122,1111122,1111122' 
NDBC,ioos:station:NOAA.NDBC:SANF1:1,2017-06-08T02:50:00Z,24.4560,-81.8770,45.4,6.2,260.0,8.2,'1111122,1111122,1111122' 
NDBC,ioos:station:NOAA.NDBC:SANF1:1,2017-06-08T03:50:00Z,24.4560,-81.8770,45.4,7.2,210.0,8.8,'1111122,1111122,1111122' 
NDBC,ioos:station:NOAA.NDBC:SANF1:1,2017-06-08T04:50:00Z,24.4560,-81.8770,45.4,7.2,210.0,8.2,'1111122,1111122,1111122' 
NDBC,ioos:station:NOAA.NDBC:SANF1:1,2017-06-08T06:50:00Z,24.4560,-81.8770,45.4,9.8,210.0,11.3,'1111122,1111122,1111122' 
NDBC,ioos:station:NOAA.NDBC:SANF1:1,2017-06-08T07:50:00Z,24.4560,-81.8770,45.4,8.2,220.0,9.3,'1111122,1111122,1111122' 
NDBC,ioos:station:NOAA.NDBC:SANF1:1,2017-06-08T08:50:00Z,24.4560,-81.8770,45.4,8.8,210.0,10.3,'1111122,1111122,1111122' 
NDBC,ioos:station:NOAA.NDBC:SANF1:1,2017-06-08T09:50:00Z,24.4560,-81.8770,45.4,7.7,210.0,8.8,'1111122,1111122,1111122' 
NDBC,ioos:station:NOAA.NDBC:SANF1:1,2017-06-08T10:50:00Z,24.4560,-81.8770,45.4,8.2,230.0,9.3,'1111122,1111122,1111122' 
NDBC,ioos:station:NOAA.NDBC:SANF1:1,2017-06-08T12:50:00Z,24.4560,-81.8770,45.4,6.2,180.0,7.7,'1111122,1111122,1111122' 
NDBC,ioos:station:NOAA.NDBC:SANF1:1,2017-06-08T13:50:00Z,24.4560,-81.8770,45.4,7.7,200.0,9.8,'1111122,1111122,1111122' 
NDBC,ioos:station:NOAA.NDBC:SANF1:1,2017-06-08T14:50:00Z,24.4560,-81.8770,45.4,7.7,200.0,9.3,'1111122,1111122,1111122' 
NDBC,ioos:station:NOAA.NDBC:SANF1:1,2017-06-08T16:50:00Z,24.4560,-81.8770,45.4,10.8,190.0,11.8,'1111122,1111122,1111122' 
NDBC,ioos:station:NOAA.NDBC:SANF1:1,2017-06-08T17:50:00Z,24.4560,-81.8770,45.4,10.3,190.0,11.8,'1111122,1111122,1111122' 
NDBC,ioos:station:NOAA.NDBC:SANF1:1,2017-06-08T18:50:00Z,24.4560,-81.8770,45.4,10.3,200.0,12.4,'1111122,1111122,1111122' 
NDBC,ioos:station:NOAA.NDBC:SANF1:1,2017-06-08T19:50:00Z,24.4560,-81.8770,45.4,9.8,220.0,11.8,'1111122,1111122,1111122' 
NDBC,ioos:station:NOAA.NDBC:SANF1:1,2017-06-08T20:50:00Z,24.4560,-81.8770,45.4,5.7,210.0,6.2,'1111122,1111122,1111122' 
NDBC,ioos:station:NOAA.NDBC:SANF1:1,2017-06-08T21:50:00Z,24.4560,-81.8770,45.4,8.8,250.0,9.8,'1111122,1111122,1111122' 
NDBC,ioos:station:NOAA.NDBC:SANF1:1,2017-06-08T22:50:00Z,24.4560,-81.8770,45.4,7.7,250.0,8.8,'1111122,1111122,1111122' 
NDBC,ioos:station:NOAA.NDBC:SANF1:1,2017-06-08T23:50:00Z,24.4560,-81.8770,45.4,8.8,210.0,10.3,'1111122,1111122,1111122' 
NDBC,ioos:station:NOAA.NDBC:SANF1:1,2017-06-09T00:50:00Z,24.4560,-81.8770,45.4,8.8,210.0,9.8,'1111122,1111122,1111122' 
NDBC,ioos:station:NOAA.NDBC:SANF1:1,2017-06-09T01:50:00Z,24.4560,-81.8770,45.4,8.2,210.0,9.3,'1111122,1111122,1111122' 
NDBC,ioos:station:NOAA.NDBC:SANF1:1,2017-06-09T02:50:00Z,24.4560,-81.8770,45.4,7.7,210.0,9.3,'1111122,1111122,1111122' 
NDBC,ioos:station:NOAA.NDBC:SANF1:1,2017-06-09T03:50:00Z,24.4560,-81.8770,45.4,7.7,200.0,9.3,'1111122,1111122,1111122' 
NDBC,ioos:station:NOAA.NDBC:SANF1:1,2017-06-09T04:50:00Z,24.4560,-81.8770,45.4,8.2,200.0,9.3,'1111122,1111122,1111122' 
NDBC,ioos:station:NOAA.NDBC:SANF1:1,2017-06-09T05:50:00Z,24.4560,-81.8770,45.4,7.7,210.0,8.8,'1111122,1111122,1111122' 
NDBC,ioos:station:NOAA.NDBC:SANF1:1,2017-06-09T06:50:00Z,24.4560,-81.8770,45.4,7.7,210.0,8.2,'1111122,1111122,1111122' 
NDBC,ioos:station:NOAA.NDBC:SANF1:1,2017-06-09T08:50:00Z,24.4560,-81.8770,45.4,6.7,230.0,7.7,'1111122,1111122,1111122' 
NDBC,ioos:station:NOAA.NDBC:SANF1:1,2017-06-09T09:50:00Z,24.4560,-81.8770,45.4,7.7,230.0,8.8,'1111122,1111122,1111122' 
NDBC,ioos:station:NOAA.NDBC:SANF1:1,2017-06-09T10:50:00Z,24.4560,-81.8770,45.4,8.2,230.0,9.3,'1111122,1111122,1111122' 
NDBC,ioos:station:NOAA.NDBC:SANF1:1,2017-06-09T11:50:00Z,24.4560,-81.8770,45.4,7.2,220.0,7.7,'1111122,1111122,1111122' 
NDBC,ioos:station:NOAA.NDBC:SANF1:1,2017-06-09T12:50:00Z,24.4560,-81.8770,45.4,6.2,240.0,7.2,'1111122,1111122,1111122' 
NDBC,ioos:station:NOAA.NDBC:SANF1:1,2017-06-09T13:50:00Z,24.4560,-81.8770,45.4,6.2,240.0,6.7,'1111122,1111122,1111122' 
NDBC,ioos:station:NOAA.NDBC:SANF1:1,2017-06-09T14:50:00Z,24.4560,-81.8770,45.4,5.7,230.0,6.2,'1111122,1111122,1111122' 
NDBC,ioos:station:NOAA.NDBC:SANF1:1,2017-06-09T15:50:00Z,24.4560,-81.8770,45.4,5.1,220.0,5.7,'1111122,1111122,1111122' 
NDBC,ioos:station:NOAA.NDBC:SANF1:1,2017-06-09T16:50:00Z,24.4560,-81.8770,45.4,4.1,230.0,5.1,'1111122,1111122,1111122' 
NDBC,ioos:station:NOAA.NDBC:SANF1:1,2017-06-09T18:50:00Z,24.4560,-81.8770,45.4,1.0,250.0,2.1,'1111122,1111122,1111122' 
NDBC,ioos:station:NOAA.NDBC:SANF1:1,2017-06-09T19:50:00Z,24.4560,-81.8770,45.4,2.1,240.0,2.6,'1111122,1111122,1111122' 
NDBC,ioos:station:NOAA.NDBC:SANF1:1,2017-06-09T20:50:00Z,24.4560,-81.8770,45.4,7.7,140.0,8.8,'1111122,1111122,1111122' 
NDBC,ioos:station:NOAA.NDBC:SANF1:1,2017-06-09T21:50:00Z,24.4560,-81.8770,45.4,5.7,220.0,6.7,'1111122,1111122,1111122' 
NDBC,ioos:station:NOAA.NDBC:SANF1:1,2017-06-09T22:50:00Z,24.4560,-81.8770,45.4,1.5,20.0,3.6,'1111122,1111122,1111122' 
NDBC,ioos:station:NOAA.NDBC:SANF1:1,2017-06-09T23:50:00Z,24.4560,-81.8770,45.4,1.0,30.0,2.6,'1111122,1111122,1111122' 
NDBC,ioos:station:NOAA.NDBC:SANF1:1,2017-06-10T00:50:00Z,24.4560,-81.8770,45.4,1.0,110.0,1.5,'1111122,1111122,1111122' 
NDBC,ioos:station:NOAA.NDBC:SANF1:1,2017-06-10T01:50:00Z,24.4560,-81.8770,45.4,3.6,140.0,3.6,'1111122,1111122,1111122' 
NDBC,ioos:station:NOAA.NDBC:SANF1:1,2017-06-10T02:50:00Z,24.4560,-81.8770,45.4,2.6,150.0,3.1,'1111122,1111122,1111122' 
NDBC,ioos:station:NOAA.NDBC:SANF1:1,2017-06-10T03:50:00Z,24.4560,-81.8770,45.4,2.6,150.0,2.6,'1111122,1111122,1111122' 
NDBC,ioos:station:NOAA.NDBC:SANF1:1,2017-06-10T04:50:00Z,24.4560,-81.8770,45.4,3.1,180.0,4.1,'1111122,1111122,1111122' 
NDBC,ioos:station:NOAA.NDBC:SANF1:1,2017-06-10T05:50:00Z,24.4560,-81.8770,45.4,7.2,180.0,7.7,'1111122,1111122,1111122' 
NDBC,ioos:station:NOAA.NDBC:SANF1:1,2017-06-10T06:50:00Z,24.4560,-81.8770,45.4,6.7,190.0,7.2,'1111122,1111122,1111122' 
NDBC,ioos:station:NOAA.NDBC:SANF1:1,2017-06-10T07:50:00Z,24.4560,-81.8770,45.4,7.7,180.0,8.8,'1111122,1111122,1111122' 
NDBC,ioos:station:NOAA.NDBC:SANF1:1,2017-06-10T08:50:00Z,24.4560,-81.8770,45.4,6.2,170.0,6.7,'1111122,1111122,1111122' 
NDBC,ioos:station:NOAA.NDBC:SANF1:1,2017-06-10T09:50:00Z,24.4560,-81.8770,45.4,6.7,170.0,7.2,'1111122,1111122,1111122' 
NDBC,ioos:station:NOAA.NDBC:SANF1:1,2017-06-10T10:50:00Z,24.4560,-81.8770,45.4,6.7,160.0,7.2,'1111122,1111122,1111122' 
NDBC,ioos:station:NOAA.NDBC:SANF1:1,2017-06-10T11:50:00Z,24.4560,-81.8770,45.4,5.7,170.0,6.7,'1111122,1111122,1111122' 
NDBC,ioos:station:NOAA.NDBC:SANF1:1,2017-06-10T12:50:00Z,24.4560,-81.8770,45.4,4.6,160.0,5.1,'1111122,1111122,1111122' 
NDBC,ioos:station:NOAA.NDBC:SANF1:1,2017-06-10T15:50:00Z,24.4560,-81.8770,45.4,4.1,190.0,4.6,'1111122,1111122,1111122' 
NDBC,ioos:station:NOAA.NDBC:SANF1:1,2017-06-10T16:50:00Z,24.4560,-81.8770,45.4,4.6,170.0,5.1,'1111122,1111122,1111122' 
NDBC,ioos:station:NOAA.NDBC:SANF1:1,2017-06-10T19:50:00Z,24.4560,-81.8770,45.4,2.6,110.0,2.6,'1111122,1111122,1111122' 
NDBC,ioos:station:NOAA.NDBC:SANF1:1,2017-06-10T21:50:00Z,24.4560,-81.8770,45.4,5.1,100.0,5.7,'1111122,1111122,1111122' 
NDBC,ioos:station:NOAA.NDBC:SANF1:1,2017-06-10T22:50:00Z,24.4560,-81.8770,45.4,4.1,100.0,5.1,'1111122,1111122,1111122' 
NDBC,ioos:station:NOAA.NDBC:SANF1:1,2017-06-11T00:50:00Z,24.4560,-81.8770,45.4,4.1,90.0,4.6,'1111122,1111122,1111122' 
NDBC,ioos:station:NOAA.NDBC:SANF1:1,2017-06-11T01:50:00Z,24.4560,-81.8770,45.4,6.2,90.0,6.7,'1111122,1111122,1111122' 
NDBC,ioos:station:NOAA.NDBC:SANF1:1,2017-06-11T02:50:00Z,24.4560,-81.8770,45.4,5.1,100.0,5.7,'1111122,1111122,1111122' 